DW8397 Weather Reports


time (UTC)temp
C
wind
direction
speed
KPH
gust
KPH
rain 1hr
cm
rain 24hr
cm
rain mn
cm
humidity
%
barometer
mb
20260831014525 17 130 0.0 0.0 0.00 0.00 0.00 86 1017.0
20260831013025 18 130 0.0 0.0 0.00 0.00 0.00 86 1016.8
20260831011525 18 336 0.0 0.0 0.00 0.00 0.00 85 1016.7
20260831010025 18 274 0.0 0.0 0.00 0.00 0.00 85 1016.5
20260831004523 18 187 0.0 12.9 0.00 0.00 0.00 85 1016.4
20260831003022 18 258 0.0 20.9 0.00 0.00 0.00 86 1016.2
20260831001523 18 281 0.0 0.0 0.00 0.00 0.00 86 1015.8
20260831000024 18 317 0.0 12.9 0.00 0.00 0.00 86 1016.0
20260830234529 18 304 0.0 8.0 0.00 0.00 0.00 87 1015.7
20260830233021 18 225 0.0 6.4 0.00 0.00 0.00 86 1015.5
20260830231520 19 283 0.0 3.2 0.00 0.00 0.00 85 1015.3
20260830230020 20 300 0.0 4.8 0.00 0.00 0.00 83 1015.3
20260830224520 20 309 0.0 4.8 0.00 0.00 0.00 80 1015.3
20260830223020 20 236 0.0 12.9 0.00 0.00 0.00 78 1015.6
20260830221519 20 298 0.0 11.3 0.00 0.00 0.00 78 1015.6
20260830220020 20 260 0.0 11.3 0.00 0.00 0.00 77 1015.5
20260830214519 20 212 0.0 12.9 0.00 0.00 0.00 77 1015.4
20260830213017 21 173 0.0 9.7 0.00 0.00 0.00 77 1015.1
20260830211516 21 209 0.0 9.7 0.00 0.00 0.00 76 1015.4
20260830210015 21 181 0.0 11.3 0.00 0.00 0.00 75 1015.4
20260830204514 21 209 0.0 8.0 0.00 0.00 0.00 74 1015.5
20260830203032 22 213 3.2 11.3 0.00 0.00 0.00 73 1015.6
20260830201514 22 196 0.0 8.0 0.00 0.00 0.00 72 1015.6
20260830200017 22 215 4.8 11.3 0.00 0.00 0.00 72 1015.5
20260830194511 23 260 0.0 6.4 0.00 0.00 0.00 71 1015.7
20260830193010 23 168 1.6 11.3 0.00 0.00 0.00 71 1015.9
20260830191510 23 209 0.0 9.7 0.00 0.00 0.00 71 1016.0
20260830190005 22 291 3.2 17.7 0.00 0.00 0.00 71 1016.2
20260830184506 22 194 4.8 14.5 0.00 0.00 0.00 71 1016.3
20260830183100 22 273 0.0 6.4 0.00 0.00 0.00 71 1016.4
20260830181606 22 169 0.0 0.0 0.00 0.00 0.00 72 1016.6
20260830180058 22 195 0.0 0.0 0.00 0.00 0.00 72 1016.7
20260830174613 22 244 0.0 0.0 0.00 0.00 0.00 71 1017.0
20260830173109 22 205 0.0 0.0 0.00 0.00 0.00 71 1017.0
20260830171554 21 205 0.0 0.0 0.00 0.00 0.00 70 1017.3
20260830170049 21 196 0.0 1.6 0.00 0.00 0.00 72 1017.4
20260830164547 21 286 0.0 0.0 0.00 0.00 0.00 73 1017.6
20260830163043 20 236 0.0 8.0 0.00 0.00 0.00 74 1017.8
20260830161539 20 163 0.0 4.8 0.00 0.00 0.00 77 1017.9
20260830160036 19 286 0.0 8.0 0.00 0.00 0.00 76 1018.1
20260830154533 18 207 0.0 0.0 0.00 0.00 0.00 78 1018.3
20260830153033 18 219 0.0 0.0 0.00 0.00 0.00 81 1018.6
20260830151529 18 201 0.0 3.2 0.00 0.00 0.00 82 1018.7
20260830150034 18 207 3.2 9.7 0.00 0.00 0.00 83 1018.7
20260830144534 18 157 0.0 0.0 0.00 0.00 0.00 81 1018.3
20260830143035 18 157 0.0 0.0 0.00 0.00 0.00 80 1018.7
20260830141522 18 157 0.0 0.0 0.00 0.00 0.00 80 1018.8
20260830140020 18 167 0.0 4.8 0.00 0.00 0.00 82 1018.8
20260830134527 17 143 0.0 8.0 0.00 0.00 0.00 84 1018.8
20260830133015 17 150 0.0 0.0 0.00 0.00 0.00 86 1018.8
20260830131527 17 150 0.0 0.0 0.00 0.00 0.00 87 1018.9
20260830130010 16 150 0.0 0.0 0.00 0.00 0.00 87 1019.0
20260830124508 16 132 0.0 0.0 0.00 0.03 0.00 87 1019.0
20260830123005 16 132 0.0 0.0 0.00 0.03 0.00 88 1019.0
20260830121502 15 132 0.0 0.0 0.00 0.03 0.00 88 1019.1
20260830120100 15 132 0.0 0.0 0.00 0.03 0.00 87 1019.0
20260830114610 15 132 0.0 0.0 0.00 0.03 0.00 87 1019.2
20260830113054 14 132 0.0 0.0 0.00 0.03 0.00 87 1019.3
20260830111554 14 132 0.0 0.0 0.00 0.03 0.00 87 1019.4
20260830110052 14 132 0.0 0.0 0.00 0.03 0.00 87 1019.4
20260830104602 14 132 0.0 0.0 0.00 0.03 0.00 87 1019.3
20260830103052 14 132 0.0 0.0 0.00 0.03 0.00 87 1019.4
20260830101546 14 132 0.0 0.0 0.00 0.03 0.00 87 1019.4
20260830100045 14 132 0.0 0.0 0.00 0.03 0.00 86 1019.3
20260830094545 14 132 0.0 0.0 0.00 0.03 0.00 85 1019.4
20260830093143 15 132 0.0 0.0 0.00 0.03 0.00 85 1019.5
20260830091543 14 132 0.0 0.0 0.00 0.03 0.00 84 1019.6
20260830090142 15 132 0.0 0.0 0.00 0.03 0.00 85 1019.6
20260830084541 15 133 0.0 0.0 0.00 0.03 0.00 84 1019.5
20260830083040 15 132 0.0 0.0 0.00 0.03 0.00 84 1019.5
20260830081539 15 132 0.0 0.0 0.00 0.03 0.00 84 1019.6
20260830080039 14 140 0.0 0.0 0.00 0.03 0.00 84 1019.7
20260830074537 14 135 0.0 0.0 0.00 0.03 0.00 84 1019.7
20260830073035 14 134 0.0 0.0 0.00 0.03 0.00 84 1019.8
20260830071600 14 134 0.0 0.0 0.00 0.03 0.00 85 1019.8
20260830070031 14 134 0.0 3.2 0.00 0.03 0.00 86 1019.7
20260830064531 14 20 0.0 0.0 0.00 0.03 0.00 86 1019.8
20260830063030 13 20 0.0 0.0 0.00 0.03 0.00 86 1019.7
20260830061529 13 20 0.0 0.0 0.00 0.03 0.00 87 1019.8
20260830060028 13 20 0.0 0.0 0.00 0.03 0.00 87 1019.9
20260830054526 13 20 0.0 0.0 0.00 0.03 0.00 86 1020.0
20260830053024 13 20 0.0 4.8 0.00 0.03 0.00 87 1020.0
20260830051524 13 360 0.0 0.0 0.00 0.03 0.00 87 1020.0
20260830050022 13 360 0.0 0.0 0.00 0.03 0.00 87 1020.3
20260830044543 13 25 0.0 0.0 0.00 0.03 0.00 86 1020.2
20260830043019 13 10 0.0 0.0 0.00 0.03 0.00 87 1020.2
20260830041519 12 11 0.0 0.0 0.00 0.03 0.00 87 1020.2
20260830040015 12 26 0.0 0.0 0.00 0.03 0.00 87 1020.0
20260830034515 12 25 0.0 0.0 0.00 0.03 0.03 87 1020.1
20260830033013 12 25 0.0 0.0 0.00 0.03 0.03 87 1020.1
20260830031514 12 25 0.0 0.0 0.00 0.03 0.03 87 1020.0
20260830030013 12 25 0.0 0.0 0.00 0.03 0.03 86 1020.1
20260830024513 13 25 0.0 0.0 0.00 0.03 0.03 86 1020.1
20260830023012 13 25 0.0 0.0 0.00 0.03 0.03 85 1020.1
20260830021514 13 27 0.0 0.0 0.00 0.03 0.03 85 1020.2
20260830020011 13 27 0.0 0.0 0.00 0.03 0.03 85 1020.4